THOR ABLESTAR DEB, 417

Orbit data source: Space-Track

THOR ABLESTAR DEB, 417 is space debris in LEO originally from a launch on Thu, 29 Jun 1961 UTC launched from the Air Force Eastern Test Range (AFETR). Debris objects in space refer to the collection of defunct objects orbiting the Earth. Examples of debris include non-operational satellites, rocket bodies, and fragments generated from explosions, collisions, or faulty payload assembly.

Loading next visibility...
Identifier
417, 1961-015ES
Orbit
LEO
Last TLE update
11 hours ago
Origin
Manufacturer
Unknown
Mission
Spacecraft
Bus & Motor
Unknown
Mass
Unknown
Launch date (UTC)
1961-06-29 (64 years ago)
Launch vehicle
Unknown
Launch site
Air Force Eastern Test Range (AFETR)
Object type
Payload
Rocket body
Debris
Shape & HBR
Unknown
Radar Cross Section
Small (<0.1 m²)

Expand to show TLE details & history

TLE from 11 hours ago
0 THOR ABLESTAR DEB
1 00417U 61015ES  25199.50392555  .00000374  00000-0  20854-3 0  9991
2 00417  66.7465 348.6248 0071780 336.8908  22.8961 14.20182572290105
Epoch: 2025-07-18T12:05Z
TLE epoch observation values (Epoch: 2025-07-18T12:05:39.167Z)
Latitude
-0.00004°
Longitude
-129.34286°
Altitude
779.259 km
Speed
7.489 km/s
True Right ascension
23h 14m 29s
True Declination
0° 00' 00"
Sunlit
Object was in full shadow at epoch
Visualization orbit readout
Latitude
9.31284°
Longitude
45.46697°
Altitude
876.421 km
Speed
7.389 km/s
Apparent Right ascension
09h 09m 03s
Apparent Declination
-47° 17' 23"
Sunlit
Object is in daylight
Visualization observer readout
Local Sidereal Time
11:49:36
Azimuth
206.004° SW
Elevation
-4.231°
Doppler factor
1
Orbital elements
Apogee altitude
874.803 km
Perigee altitude
771.422 km
Semi-major axis
7,201.249 km
Eccentricity
0.00718
Inclination
66.7465°
RAAN
348.6248°
Arg. of periapsis
336.8908°
True anomaly
23.21878°
Mean anomaly
22.8961°
Eccentric anomaly
23.05717°
Mean motion
3.55166 °/min
Orbital period
101.36 mins
BSTAR
0.00020854
Loading maneuver chart data...
Loading SW <> Apogee altitude chart data...
|